星链-4103 (STARLINK-4103 )

导读 | 星芒AI

STARLINK-4103 是 SpaceX Starlink 项目中的一颗低轨通信卫星,属于第 41 批发射的 Starlink 卫星群。该卫星运行在约 550 公里的高度,旨在为全球用户提供高速互联网服务。Starlink 项目致力于构建一个由数千颗卫星组成的星座,以改善偏远地区的网络接入。STARLINK-4103 采用先进的推进和通信技术,具备自动避碰功能,以确保在轨安全。该项目对全球通信基础设施的发展具有重要意义。

基本信息
目录编号:
53141
目录名称:
STARLINK-4103
国际标识:
2022-083K
轨道中心:
EARTH
卫星名称:
星链-4103
卫星全名:
星链-4103 (STARLINK-4103 )
卫星状态:
在轨 (已飞行1253 天)
发射日期:
2022-07-17 UTC
国别 :
美国 (US)
星等 :
--
轨道信息
数据来源 国际轨道数据 AOE轨道数据
星历时间 2025-12-21T02:04:46+0800
11小时前
查看轨道信息
2025-12-20T15:00:00+0800
22小时前
查看轨道信息
半长轴 6917.874km 6917.867km
偏心率 0.0001411 0.000149
轨道倾角 53.217° 53.215°
近地点辐角 92.804° 84.530°
升交点赤经 168.480° 170.552°
平近点角 267.312° 286.636°
近地点 538.76km 538.699km
远地点 540.714km 540.761km
周期 95.437分钟 95.437分钟
每日圈数 15.088422 15.088445
详细信息
固有亮度:
5
最大亮度:
2.5
卫星平台:
Starlink v1.5
覆盖范围:
全球
运营商:
太空探索技术公司
运营商所在国:
美国
制造商(研发单位):
太空探索技术公司
制造商所在国:
美国
使用方式:
暂无
卫星简介
星链(Starlink)计划是由太空探索技术公司(SpaceX)提出的一个巨型低轨卫星互联网星座项目,计划在2019年至2024年间在太空搭建由约1.2万颗卫星组成的“星链”网络,其中1584颗将部署在地球上空550千米处的近地轨道,并从2020年开始工作。该卫星仍在工作。
2D轨道图
3D轨道图
轨道高度分析图
轨道倾角分析图
轨道综合分析图
查看轨道综合分析图